DELTA 1 DEB, 21284

Orbit data source: Space-Track

DELTA 1 DEB, 21284 is space debris in SSO originally from a launch on Thu, 12 Jun 1975 UTC launched from the Air Force Western Test Range (AFWTR). Debris objects in space refer to the collection of defunct objects orbiting the Earth. Examples of debris include non-operational satellites, rocket bodies, and fragments generated from explosions, collisions, or faulty payload assembly.

Loading next visibility...
Identifier
21284, 1975-052V
Orbit
SSO
Country
Flag of USUS
Related business
Manufacturer
Unknown
Mission
Spacecraft
Bus & Motor
Unknown
Mass
Unknown
Launch date (UTC)
1975-06-12 (51 years ago)
Launch vehicle
Unknown
Launch site
Air Force Western Test Range (AFWTR)
Object type
Payload
Rocket body
Debris
Shape & HBR
Unknown shape, 0.5 m
Radar Cross Section
Medium (>0.1 m² and <1 m²)

Expand to show TLE details & history
Last TLE update: 8 hours ago

TLE from 8 hours ago
0 DELTA 1 DEB
1 21284U 75052V   26124.79516964  .00000051  00000-0  18998-3 0  9992
2 21284  99.8334 205.4484 0077979  98.2402  17.4879 13.31365904699810
Epoch: 2026-05-04T19:05Z
TLE epoch observation values (Epoch: 2026-05-04T19:05:02.656Z)
Latitude
62.41606°
Longitude
-104.21866°
Altitude
1,096.334 km
Speed
7.337 km/s
True Right ascension
02h 58m 53s
True Declination
62° 16' 52"
Sunlit
Object was in daylight at epoch
Visualization orbit readout
Latitude
Unknown
Longitude
Unknown
Altitude
Unknown
Speed
Unknown
Apparent Right ascension
Unknown
Apparent Declination
Unknown
Sunlit
N/A
Visualization observer readout
Local Sidereal Time
11:20:32
Azimuth
Unknown
Elevation
Unknown
Doppler factor
Unknown
Orbital elements
Apogee altitude
1,197.566 km
Perigee altitude
1,080.331 km
Semi-major axis
7,517.086 km
Eccentricity
0.0078
Inclination
99.8334°
RAAN
205.4484°
Arg. of periapsis
98.2402°
True anomaly
17.75894°
Mean anomaly
17.4879°
Eccentric anomaly
17.62317°
Mean motion
3.33019 °/min
Orbital period
108.1 mins
BSTAR
0.00018998
Loading maneuver chart data...
Computing Atmospheric mass density...
Loading historical data...
Loading historical data...
Loading historical data...
Loading historical data...
Loading historical data...
Loading historical data...
Loading historical data...

Documentation

Showing up to 5 results
|